Flag for Canada Weather past 2 weeks in Saskatoon, Saskatchewan, Canada

Now
21 °F

Ice fog.


Feels Like: 14 °F
Forecast: 20 / 25 °F
Wind: 6 mph from Southeast

Location: Saskatoon Weather Station

Current Time: Dec 21, 2014 at 3:23:34 AM

Latest Report: Dec 21, 2014 at 2:00 AM


Visibility: 0 mi

Pressure: 29.65 "Hg

Humidity: 93%

Dew point: 19 °F

Location of SaskatoonLocation

Historic Weather in Saskatoon — Graph

°F

Saskatoon temperature yesterday

Maximum temperature yesterday: 21 °F (at 12:00 PM)
Minimum temperature yesterday: 16 °F (at 12:00 AM)
Average temperature yesterday: 19 °F

Past Weeks' High & Low Weather Summary

 TemperatureHumidityPressure
High43 °F (Dec 11, 1:00 PM)100% (Dec 6, 3:00 PM)30.46 "Hg (Dec 6, 3:00 PM)
Low10 °F (Dec 6, 4:00 AM)66% (Dec 11, 1:00 PM)29.56 "Hg (Dec 11, 10:00 AM)
Average25 °F88%30.03 "Hg
* Reported Dec 6 2:00 AM — Dec 21 2:00 AM, Saskatoon, Weather by CustomWeather, © 2014

Note: Actual official high and low records may vary slightly from our data, if they occured in-between our weather recording intervals... More about our weather records

Advertising

Saskatoon weather history for previous 24 hours

 ConditionsComfort  
Time TempWeatherWind HumidityBarometerVisibility
2:00 AM
Dec 21
21 °FIce fog.6 mph93%29.65 "Hg1 mi
1:00 AM21 °FIce fog.6 mph93%29.68 "Hg1 mi
12:54 AM21 °FIce fog.8 mph93%29.68 "Hg1 mi
12:00 AM21 °FIce fog.5 mph100%29.71 "Hg1 mi
11:00 PM
Dec 20
21 °FIce fog.5 mph100%29.72 "Hg1 mi
10:52 PM21 °FIce fog.2 mph100%29.72 "Hg1 mi
10:00 PM21 °FIce fog.3 mph100%29.73 "Hg2 mi
9:00 PM21 °FIce fog.3 mph100%29.75 "Hg6 mi
8:00 PM21 °FIce fog.2 mph93%29.78 "Hg6 mi
7:00 PM21 °FLight snow. Low clouds.7 mph93%29.80 "Hg8 mi
6:00 PM21 °FLight snow. Mostly cloudy.7 mph93%29.80 "Hg8 mi
5:00 PM21 °FLight snow. Ice fog.2 mph93%29.80 "Hg4 mi
4:00 PM21 °FLight snow. Ice fog.5 mph93%29.80 "Hg4 mi
3:00 PM21 °FLight snow. Ice fog.6 mph93%29.80 "Hg3 mi
2:00 PM21 °FLight snow. Ice fog.6 mph93%29.81 "Hg3 mi
1:00 PM21 °FLight snow. Ice fog.2 mph93%29.81 "Hg3 mi
12:00 PM21 °FLight snow. Ice fog.3 mph93%29.83 "Hg3 mi
11:00 AM19 °FLight snow. Ice fog.6 mph100%29.84 "Hg3 mi
10:00 AM19 °FLight snow. Ice fog.7 mph93%29.84 "Hg3 mi
9:00 AM18 °FLight snow. Ice fog.10 mph100%29.83 "Hg3 mi
8:00 AM19 °FLight snow. Ice fog.10 mph93%29.85 "Hg6 mi
7:00 AM18 °FIce fog.9 mph93%29.85 "Hg6 mi
6:00 AM18 °FIce fog.12 mph93%29.86 "Hg6 mi
5:00 AM18 °FIce fog.12 mph93%29.87 "Hg6 mi
4:00 AM16 °FMostly cloudy.12 mph100%29.88 "Hg8 mi
3:00 AM16 °FIce fog.14 mph93%29.89 "Hg4 mi
Weather by CustomWeather, © 2014

See weather overviewHow to use our weather pages